User: anonymous   Login
Location: Unspecified
(0.0000°N, 0.0000°E)
Time: 00:46:07
(UTC+00:00)
Language:

STARLINK-3364 - Orbit

View from above orbital plane
View from above orbital plane
View from above satellite
View from above satellite

Ground track
Ground track

The orbit is defined by the following mean orbital elements,

1 51152U          26145.47308742 +.00000000 +00000-0 +11446-4 0 00000
2 51152  53.2146 324.0420 0001456  92.3879 267.7280 15.08832924    00
Epoch (UTC): 25 May 2026 11:21:14
Eccentricity: 0.0001456
inclination: 53.2146°
perigee height: 539 km
apogee height: 541 km
right ascension of ascending node: 324.0420°
argument of perigee: 92.3879°
revolutions per day: 15.08832924
mean anomaly at epoch: 267.7280°

The dashed part of the orbit path shows where the satellite is in the earth's shadow,  

DLR